• Join FlightAware (Why Join?)
  • Login
  • US Flag GB Flag 
21:00 EDT


 

Airport Tracker/Info


-or-


 

Live Flight TrackerFlight Track Log ✈ EGF3796 ✈ 11-Jun-2013 ✈ KORD - KXNA

Flight Track Log - Related Links

Times and Time Zones

All times are in EDT time to prevent confusion due to time zone crossing. See the EGF3796 flight status page for this flight to view local times or setup timezone preferences in your user account.

Time Position Orientation Groundspeed Altitude Reporting Facility
EDT Latitude Longitude Course Direction KTS MPH feet Rate Location/Type
20:55 42.0000 -87.9667 254° West 177 204 2,600  Level Chicago TRACON
20:57 42.0000 -88.0667 270° West 243 280 5,200 2,160 Climbing Chicago TRACON
20:58 41.9922 -88.1528 263° West 253 291 7,400 2,580 Climbing Chicago Center
20:59 41.9797 -88.2750 262° West 273 314 10,700 2,280 Climbing Chicago Center
21:00 41.9586 -88.3836 255° West 300 345 12,300 1,380 Climbing Chicago Center
21:01 41.7846 -88.7036 254° West  Level FlightAware Approximate
21:01 41.9264 -88.5061 251° West 344 396 13,700  Level Chicago Center
21:02 41.8919 -88.6292 249° West 355 409 16,100 2,340 Climbing Chicago Center
21:03 41.8517 -88.7786 250° West 359 413 18,600 2,100 Climbing Chicago Center
21:04 41.8167 -88.9058 250° West 365 420 20,500 1,740 Climbing Chicago Center
21:05 41.7814 -89.0356 250° West 370 426 22,200 1,560 Climbing Chicago Center
21:06 41.7447 -89.1644 249° West 373 429 23,800 1,320 Climbing Chicago Center
21:07 41.7081 -89.2986 250° West 383 441 25,000 1,080 Climbing Chicago Center
21:08 41.6611 -89.4656 249° West 401 461 26,100 1,080 Climbing Chicago Center
21:09 41.6264 -89.5925 250° West 413 475 27,300 1,200 Climbing Chicago Center
21:10 41.5756 -89.7658 249° West 420 483 28,700 1,140 Climbing Chicago Center
21:11 41.5342 -89.9133 249° West 425 489 29,700 960 Climbing Chicago Center
21:12 41.4911 -90.0631 249° West 432 497 30,800 1,080 Climbing Chicago Center
21:13 41.4481 -90.2092 249° West 428 493 32,000 1,140 Climbing Chicago Center
21:14 41.4058 -90.3528 249° West 419 482 33,200 1,020 Climbing Chicago Center
21:15 41.3647 -90.4950 249° West 415 478 34,200 1,020 Climbing Chicago Center
21:16 41.2892 -90.6531 238° Southwest 436 502 35,400 1,080 Climbing Chicago Center
21:17 41.1878 -90.7364 212° Southwest 432 497 36,500 960 Climbing Chicago Center
21:18 41.0836 -90.8119 209° Southwest 429 494 37,400 720 Climbing Chicago Center
21:19 40.9797 -90.8864 208° Southwest 427 491 38,000 240 Climbing Chicago Center
21:20 40.8736 -90.9617 208° Southwest 433 498 38,000  Level Chicago Center
21:21 40.7411 -91.0564 208° Southwest 449 517 38,000  Level Chicago Center
21:22 40.6314 -91.1336 208° Southwest 450 518 38,000  Level Chicago Center
21:23 40.5644 -91.1806 208° Southwest 453 521 38,000  Level Kansas City Center
21:24 40.4536 -91.2589 208° Southwest 454 522 38,000  Level Kansas City Center
21:25 40.3322 -91.3433 208° Southwest 453 521 38,000  Level Kansas City Center
21:26 40.2214 -91.4214 208° Southwest 454 522 38,000  Level Kansas City Center
21:27 40.1097 -91.4983 208° Southwest 453 521 38,000  Level Kansas City Center
21:28 39.9992 -91.5764 208° Southwest 454 522 38,000  Level Kansas City Center
21:29 39.8897 -91.6522 208° Southwest 449 517 38,000  Level Kansas City Center
21:30 39.7578 -91.7428 208° Southwest 449 517 38,000  Level Kansas City Center
21:31 39.6481 -91.8181 208° Southwest 448 516 38,000  Level Kansas City Center
21:32 39.5375 -91.8947 208° Southwest 450 518 38,000  Level Kansas City Center
21:33 39.4283 -91.9686 208° Southwest 448 516 38,000  Level Kansas City Center
21:34 39.3194 -92.0428 208° Southwest 445 512 38,000  Level Kansas City Center
21:35 39.2058 -92.1147 206° Southwest 443 510 38,000  Level Kansas City Center
21:36 39.0958 -92.1917 209° Southwest 447 514 38,000  Level Kansas City Center
21:37 38.9847 -92.2661 208° Southwest 450 518 38,000  Level Kansas City Center
21:39 38.8539 -92.3589 209° Southwest 447 514 38,000  Level Kansas City Center
21:40 38.7411 -92.4306 206° Southwest 450 518 38,000  Level Kansas City Center
21:41 38.6294 -92.5064 208° Southwest 454 522 38,000  Level Kansas City Center
21:42 38.5175 -92.5806 207° Southwest 454 522 38,000  Level Kansas City Center
21:43 38.4075 -92.6550 208° Southwest 450 518 38,000  Level Kansas City Center
21:44 38.2964 -92.7286 207° Southwest 451 519 38,000  Level Kansas City Center
21:45 38.1831 -92.8022 207° Southwest 458 527 38,000 -60 Level Kansas City Center
21:46 38.0478 -92.8897 207° Southwest 457 526 37,900 -480 Descending Kansas City Center
21:47 37.9333 -92.9650 207° Southwest 462 532 37,000 -960 Descending Kansas City Center
21:48 37.8186 -93.0386 207° Southwest 464 534 36,000 -900 Descending Kansas City Center
21:49 37.7047 -93.1111 207° Southwest 461 531 35,200 -840 Descending Kansas City Center
21:50 37.5897 -93.1858 207° Southwest 463 533 34,300 -1,200 Descending Kansas City Center
21:51 37.4725 -93.2606 207° Southwest 469 540 32,800 -1,500 Descending Kansas City Center
21:52 37.3531 -93.3347 206° Southwest 476 548 31,300 -1,320 Descending Kansas City Center
21:53 37.2219 -93.4281 210° Southwest 456 525 30,100 -1,800 Descending Kansas City Center
21:54 37.1122 -93.5097 211° Southwest 456 525 27,700 -2,580 Descending Kansas City Center
21:55 37.0011 -93.5892 210° Southwest 458 527 24,900 -2,880 Descending Kansas City Center
21:56 36.8925 -93.6653 209° Southwest 452 520 21,800 -3,000 Descending Kansas City Center
21:57 36.7978 -93.7333 210° Southwest 443 510 18,900 -3,180 Descending Kansas City Center
21:58 36.6783 -93.8156 209° Southwest 427 491 15,500 -3,120 Descending Kansas City Center
21:59 36.6111 -93.9069 228° Southwest 391 450 12,600 -2,220 Descending Kansas City Center
22:00 36.5586 -94.0081 237° Southwest 364 419 10,900 -1,380 Descending Kansas City Center
22:01 36.5119 -94.0914 235° Southwest 326 375 9,800 -1,560 Descending Kansas City Center
22:02 36.4714 -94.1672 236° Southwest 292 336 7,800 -1,800 Descending Kansas City Center
22:03 36.4372 -94.2328 237° Southwest 250 288 6,200 -1,800 Descending Kansas City Center
22:04 36.4083 -94.2864 236° Southwest 215 247 4,200 -1,560 Descending Kansas City Center
22:05 36.3814 -94.3389 237° Southwest 195 224 3,100 -900 Descending Kansas City Center
22:06 36.3494 -94.3378 178° South 166 191 2,500 -720 Descending Kansas City Center
22:07 36.3125 -94.3219 161° South 132 152 1,700 -780 Descending Kansas City Center